Flag Weather past 2 weeks in Fort St. John, British Columbia, Canada

Now
7 °F

Mostly cloudy.


Feels Like: -8 °F
Forecast: 2 / 29 °F
Wind: 10 mph from North

Location: Fort St John

Current Time: Nov 23, 2014 at 5:27:23 PM

Latest Report: Nov 23, 2014 at 4:00 PM


Visibility: 15 mi

Pressure: 29.86 "Hg

Humidity: 78%

Dew point: 1 °F

Location of Fort St. JohnLocation

Historic Weather in Fort St. John — Graph

°F

Fort St. John temperature yesterday

Maximum temperature yesterday: 18 °F (at 12:00 AM)
Minimum temperature yesterday: 1 °F (at 11:00 PM)
Average temperature yesterday: 10 °F

Past Weeks' High & Low Weather Summary

 TemperatureHumidityPressure
High39 °F (Nov 20, 1:00 PM)100% (Nov 21, 2:00 AM)30.94 "Hg (Nov 21, 2:00 AM)
Low-9 °F (Nov 11, 6:00 AM)55% (Nov 17, 5:00 PM)29.39 "Hg (Nov 22, 12:00 AM)
Average11 °F81%30.28 "Hg
* Reported Nov 8 4:00 PM — Nov 23 4:00 PM, Fort St. John, Weather by CustomWeather, © 2014

Note: Actual official high and low records may vary slightly from our data, if they occured in-between our weather recording intervals... More about our weather records

Advertising

Fort St. John weather history for previous 24 hours

 ConditionsComfort  
Time TempWeatherWind HumidityBarometerVisibility
4:00 PM
Nov 23
7 °FMostly cloudy.10 mph78%29.86 "Hg15 mi
3:00 PM7 °FMostly cloudy.8 mph78%29.83 "Hg15 mi
2:00 PM7 °FMostly cloudy.5 mph72%29.81 "Hg15 mi
1:00 PM7 °FPartly sunny.3 mph78%29.80 "Hg15 mi
12:00 PM1 °FPartly sunny.8 mph85%29.79 "Hg15 mi
11:00 AM0 °FPartly sunny.6 mph84%29.80 "Hg15 mi
10:00 AM1 °FBroken clouds.6 mph78%29.80 "Hg15 mi
9:00 AM1 °FBroken clouds.7 mph78%29.80 "Hg15 mi
8:00 AM1 °FPartly cloudy.3 mph78%29.80 "Hg15 mi
7:00 AM1 °FPassing clouds.6 mph78%29.80 "Hg15 mi
6:00 AM1 °FPassing clouds.9 mph78%29.80 "Hg15 mi
5:00 AM1 °FPassing clouds.7 mph78%29.82 "Hg15 mi
4:00 AM5 °FPassing clouds.12 mph72%29.81 "Hg15 mi
3:00 AM3 °FPassing clouds.10 mph78%29.82 "Hg15 mi
2:00 AM3 °FPassing clouds.12 mph78%29.83 "Hg15 mi
1:00 AM1 °FPassing clouds.9 mph78%29.84 "Hg15 mi
12:00 AM1 °FPassing clouds.8 mph85%29.84 "Hg15 mi
11:00 PM
Nov 22
1 °FPassing clouds.7 mph85%29.85 "Hg15 mi
10:00 PM3 °FPassing clouds.3 mph78%29.84 "Hg15 mi
9:00 PM3 °FPassing clouds.2 mph78%29.85 "Hg15 mi
8:00 PM7 °FPassing clouds.5 mph78%29.84 "Hg15 mi
7:00 PM7 °FPartly cloudy.No wind72%29.84 "Hg15 mi
6:00 PM7 °FPassing clouds.3 mph72%29.83 "Hg15 mi
5:00 PM7 °FPassing clouds.7 mph72%29.80 "Hg15 mi
Weather by CustomWeather, © 2014

See weather overviewHow to use our weather pages